www.pogodaiklimat.ru

Погода и климат >> Архив погоды >> Алжир >> Mostaganem Ville


ПОГОДА в Mostaganem Ville

  • Прогноз погоды в Mostaganem Ville
  • Монитор погоды в Mostaganem Ville
  • Климат города

АРХИВ ПОГОДЫ в Mostaganem Ville

Время (UTC), дата Ветер
(напр.,м/с)
 
Видим.   Явления Облачность Т
(С)
Тd
(С)
f
(%)
Тe
(С)
Тes
(С)
Комфортность P
(гПа)
Po
(гПа)
Тmin
(С)
Tmax
(С)
R
(мм)
R24
(мм)
S
(см)
18 9.08 З 3 10 км 3/0
[Ci fib]
+27.6 +17.2 53 +32 +32 очень
душно
1012.3 1012.0 +29.2
06 10.08 Ю 2 10 км 3/0
[Ac cast]
+21.3 +19.1 87 +26 +26 душно 1015.8 1016.0 +18.3
09 10.08 З 2 10 км 1/1 600 м
[Cu med, cong]
+26.9 +20.3 67 +33 +44 очень
душно
1017.2 1017.0
12 10.08 З 3 10 км 4/4 800 м
[Sc]
+28.3 +21.0 65 +36 +46 очень
душно
1017.4 1017.0
15 10.08 С 4 12 км 3/3 600 м
[Cu med, cong]
+29.7 +21.6 62 +38 +43 очень
душно
1016.3 1016.0
18 10.08 СВ 3 12 км 1/1 600 м
[Cu med, cong]
+28.2 +21.2 66 +36 +36 очень
душно
1016.4 1016.0 +30.2
06 11.08 штиль 0 8000 м ясно +19.2 +17.4 89 +21 +22 комфорт 1017.3 1017.0 +19.1
09 11.08 СВ 5 10 км ясно +27.9 +18.5 57 +33 +39 очень
душно
1018.2 1018.0
12 11.08 СВ 3 10 км 1/1 600 м
[Cu hum]
+31.4 +19.4 49 +37 +51 опасность
солнечного
удара
1016.7 1017.0
15 11.08 СВ 5 10 км 1/1 600 м
[Cu hum]
+31.3 +19.2 49 +37 +42 очень
душно
1015.1 1015.0
18 11.08 СВ 5 10 км 3/3 600 м
[Cu hum]
+27.3 +18.9 60 +32 +33 очень
душно
1014.5 1015.0 +32.3
06 12.08 штиль 0 8000 м ясно +18.8 +16.2 85 +20 +20 1016.9 1017.0 +18.4
09 12.08 В 4 10 км ясно +27.9 +16.7 51 +32 +39 душно 1017.4 1017.0
12 12.08 СВ 6 12 км ясно +31.5 +18.2 45 +36 +44 очень
душно
1016.2 1016.0
15 12.08 С 4 12 км 4/0
[Ci fib]
+31.5 +18.0 45 +36 +43 очень
душно
1015.4 1015.0
18 12.08 С 4 10 км 6/0
[Ac cast Ci sp]
+27.8 +18.2 56 +33 +33 очень
душно
1015.1 1015.0 +32.9
06 13.08 В 1 10 км ясно +20.3 +18.1 87 +25 +25 комфорт 1014.5 1015.0 +19.2
09 13.08 СЗ 2 10 км ясно +26.6 +19.3 64 +32 +44 очень
душно
1015.3 1015.0
12 13.08 СЗ 3 10 км ясно +29.3 +17.5 49 +33 +51 опасность
солнечного
удара
1013.8 1014.0
15 13.08 В 3 12 км ясно +35.8 +17.6 34 +39 +48 очень
душно
1010.9 1011.0
18 13.08 В 4 12 км ясно +31.4 +16.8 42 +35 +35 очень
душно
1010.3 1010.0 +35.8
06 14.08 ЮВ 2 8000 м 9/4 800 м
[Sc Ac cast]
+22.2 +19.6 85 +28 +28 душно 1013.1 1013.0 +21.3
09 14.08 С 1 8000 м 9/4 800 м
[Sc Ac cast]
+24.5 +20.1 76 +30 +33 очень
душно
1014.3 1014.0
12 14.08 З 3 8000 м 6/0
[Ac cast Ci sp]
+29.6 +20.5 58 +36 +47 очень
душно
1012.9 1013.0
15 14.08 СЗ 4 10 км 4/0
[Ac cast Ci sp]
+34.1 +20.4 45 +41 +47 опасность
перегрева
1010.3 1010.0
18 14.08 СВ 3 10 км 4/0
[Ac cast Ci sp]
+34.7 +17.0 35 +38 +38 очень
душно
1010.3 1010.0 +37.6
06 15.08 штиль 0 8000 м 6/3 480 м
[Sc Ac cast]
+22.7 +21.2 91 +30 +30 очень
душно
1014.7 1015.0 +22.3
09 15.08 З 2 8000 м 4/0
[Ac cast]
+27.6 +22.5 74 +36 +45 очень
душно
1015.2 1015.0
12 15.08 СЗ 5 10 км 4/0
[Ac cast]
+27.2 +22.7 76 +36 +44 очень
душно
1014.9 1015.0
15 15.08 СЗ 4 10 км 1/0
[Ac cast]
+28.7 +22.4 69 +38 +45 очень
душно
1013.5 1014.0
18 15.08 СЗ 2 10 км 4/4 800 м
[Cu med, cong]
+24.8 +21.8 83 +32 +32 очень
душно
1013.8 1014.0 +34.0
06 16.08 З 2 8000 м 9/9 480 м
[Cu Sc]
+24.3 +22.7 91 +32 +32 очень
душно
1017.5 1018.0 +23.9
09 16.08 СЗ 3 8000 м 5/5 480 м
[Cu hum]
+26.6 +22.9 80 +35 +40 очень
душно
1018.4 1018.0
12 16.08 СЗ 4 8000 м 4/4 600 м
[Cu hum]
+28.1 +22.1 70 +37 +44 очень
душно
1017.7 1018.0
15 16.08 С 3 8000 м 1/1 600 м
[Cu hum]
+28.1 +22.6 72 +37 +45 очень
душно
1016.2 1016.0

 

Местоположение метеостанции Mostaganem Ville (Алжир): широта 35.88 долгота 0.12 высота над уровнем моря 138 м.

В архиве по умолчанию представлена погода в Mostaganem Ville за последнюю неделю. Архивные данные за месяц целиком и за предыдущие месяцы, начиная с января 2011 года, Вы можете получить, выбрав интересующий диапазон дат из раскрывающегося списка и нажав кнопку "Ввод!".

Внимание! Время в таблицах - всемирное. Для получения местного времени необходимо прибавить поправку, которая в Mostaganem Ville равна 1 ч.

Смотрите также архив погоды в соседних городах и на ближайших метеорологических станциях:

Погода в Arzew (Алжир) (36 км)
Погода в Relizane (Алжир) (42 км)
Погода в Oran (Es Senia) (Алжир) (71 км)
Погода в Oran-Port (Алжир) (72 км)
Погода в Oran Tafaraoui (Алжир) (73 км)
Погода в Mascara Ghriss (Алжир) (73 км)
Погода в Sidi Bel Abbes (Алжир) (101 км)
Погода в Saida (Алжир) (112 км)
Погода в Chlef (Алжир) (115 км)
Погода в Tenes (Алжир) (129 км)

Пояснения к столбцам:

Ветер - указаны скорость ветра в м/с - средняя за 10 мин, порывы в срок и между сроками (в фигурных скобках) и направление, откуда дует ветер: С - северный, СВ - северо-восточный, В - восточный, ЮВ - юго-восточный, Ю - южный, ЮЗ - юго-западный, З - западный, СЗ - северо-западный.
Видимость - горизонтальная дальность видимости в метрах или километрах. При видимости от 1 до 10 км при отсутствии осадков обычно наблюдается дымка, при ухудшении видимости до 1 км и менее - туман. В сухую погоду видимость может ухудшаться дымом, пылью или мглою.
Явления - указаны атмосферные явления, наблюдавшиеся в срок или в последний час перед сроком; фигурными скобками обозначены явления, наблюдавшиеся между сроками (за 1-3 часа до срока); квадратными скобками обозначены град или гололедные отложения с указанием их диаметра в мм.
Облачность - указаны через наклонную черту общая и нижняя облачность в баллах и высота нижней границы облаков в метрах; квадратными скобками обозначены формы облаков: Ci - перистые, Cs - перисто-слоистые, Cc - перисто-кучевые, Ac - высококучевые, As - высокослоистые, Sc - слоисто-кучевые, Ns - слоисто-дождевые, Cu - кучевые, Cb - кучево-дождевые. Подробнее классификацию облаков см. в Атласе облаков (PDF).
T - Температура воздуха - температура, измеренная на высоте 2 м над землей.
Td - Температура точки росы - температура, при понижении до которой содержащийся в воздухе водяной пар достигнет насыщения.
f - Относительная влажность воздуха - влажноcть воздуха, измеренная на высоте 2 м над землей.
Te - Эффективная температура - температура, которую ощущает одетый по сезону человек в тени. Характеристика душности погоды. При расчете учитывается влияние влажности воздуха и скорости ветра на теплоощущения человека.
Tes - Эффективная температура на солнце - температура, которую ощущает человек, с поправкой на солнечный нагрев. Характеристика знойности погоды. Зависит от высоты солнца над горизонтом, облачности и скорости ветра. Ночью, в пасмурную погоду, а также при ветре 12 м/с и более поправка равна нулю.
P - Атмосферное давление - приведенное к уровню моря атмосферное давление.
Po - Атмосферное давление - измеренное на уровне метеостанции атмосферное давление.
Tmin - Минимальная температура - минимум температуры воздуха на высоте 2 м над землей.
Tmax - Максимальная температура - максимум температуры воздуха на высоте 2 м над землей.
R - Количество осадков - Количество выпавших осадков за период времени, мм. При наведении курсора мыши на число - период времени, за который выпало указанное количество осадков.
R24 - Количество осадков - Количество выпавших осадков за 24 часа, мм.
S - Снежный покров - Высота снежного покрова, см. При наведении курсора мыши на число - состояние снежного покрова и степень покрытия местности в баллах.